Location: Croissy-Beaubourg
(48.8283°N, 2.6696°E)
Time: 23:09:31
(UTC+00:00)

Cosmos 2082 - Pass Details

Date: 17 August 2022
Orbit: 832 x 856 km, 71.0° (Epoch: 28 September)

Event Time Altitude Azimuth Distance (km) Brightness Sun altitude
Rises 01:50:07 0° 335° (NNW) 3,406 7.3 -22.6°
Reaches altitude 10° 01:53:03 10° 350° (N) 2,472 6.8 -22.3°
Maximum altitude 01:57:36 24° 43° (NE) 1,690 6.0 -21.9°
Drops below altitude 10° 02:02:08 10° 96° (E) 2,475 6.5 -21.5°
Sets 02:05:04 0° 110° (ESE) 3,412 7.0 -21.2°
